Regional Weather Roundup
Issued by NWS Boston, MA

Home | Current Version | Previous Version | Text Only | Print | Product List | Glossary On
Versions: 1 2 3 4 5 6 7 8 9 10 11 12 13 14 15 16 17 18 19 20 21 22 23 24 25 26 27 28 29 30 31 32 33 34 35 36 37 38 39 40 41 42 43 44 45 46 47 48 49 50
000
ASUS41 KBOX 272010
RWRBOX

REGIONAL WEATHER ROUNDUP
NATIONAL WEATHER SERVICE TAUNTON MA
400 PM EDT THU APR 27 2017

NOTE:  "FAIR" INDICATES FEW OR NO CLOUDS BELOW 12,000 FEET WITH NO
SIGNIFICANT WEATHER AND/OR OBSTRUCTIONS TO VISIBILITY.

MAZALL-272100-
EASTERN MASSACHUSETTS

CITY           SKY/WX    TMP DP  RH WIND       PRES   REMARKS
BOSTON         MOSUNNY   57  54  89 E9        29.91F
BEVERLY        MOSUNNY   63  55  75 SE7       29.90F
LAWRENCE       CLOUDY    69  59  70 SW6       29.92F
BEDFORD        CLOUDY    66  55  67 W6        29.89F
BLUE HILL        N/A     68  56  65 CALM      29.90S
NORWOOD        CLOUDY    69  59  70 CALM      29.89F
MARSHFIELD     MOSUNNY   55  52  88 E7        29.92S
PLYMOUTH       PTSUNNY   64  57  78 CALM      29.91F
TAUNTON        PTSUNNY   68  56  65 S6        29.90F
NEW BEDFORD    CLOUDY    64  57  78 SE10      29.90F
$$

MAZALL-272100-
CAPE COD AND THE ISLANDS

CITY           SKY/WX    TMP DP  RH WIND       PRES   REMARKS
FALMOUTH       PTSUNNY   64  57  77 MISG      29.93S
HYANNIS        CLOUDY    56  53  90 S10       29.92R
CHATHAM        MOSUNNY   61  55  81 S6        29.94R
PROVINCETOWN   CLOUDY    54  50  86 E5        29.94S
NANTUCKET      CLOUDY    53  50  89 S6        29.94F FOG
MARTHAS VNYRD  PTSUNNY   61  54  77 S7        29.93R
$$

MAZALL-272100-
CENTRAL AND WESTERN MASSACHUSETTS

CITY           SKY/WX    TMP DP  RH WIND       PRES   REMARKS
WORCESTER      CLOUDY    63  54  72 S5        29.91F
FITCHBURG      CLOUDY    68  57  68 SE8       29.90S
ORANGE         CLOUDY    65  55  70 S7        29.89F
SPRINGFIELD    CLOUDY    67  55  65 SE3       29.87F
WESTFIELD      CLOUDY    66  57  72 S6        29.88F
NORTH ADAMS    SUNNY     70  57  63 SE12G20   29.85F
PITTSFIELD     MOSUNNY   66  54  63 S9        29.85F
$$

RIZALL-272100-
RHODE ISLAND

CITY           SKY/WX    TMP DP  RH WIND       PRES   REMARKS
PROVIDENCE     PTSUNNY   62  58  86 SE8       29.91F
NEWPORT        CLOUDY    61  58  90 S6        29.92F
BLOCK ISLAND   LGT RAIN  57  55  94 S10       29.94S FOG
SMITHFIELD     CLOUDY    66  57  72 VRB3      29.91F
WESTERLY       CLOUDY    58  54  86 S7        29.93S
$$

CTZALL-272100-
CONNECTICUT

CITY           SKY/WX    TMP DP  RH WIND       PRES   REMARKS
BRADLEY INTL   CLOUDY    66  57  72 SE6       29.89F
HARTFORD       CLOUDY    66  58  75 SE7       29.88F
BRIDGEPORT     CLOUDY    62  57  83 E9        29.89F
DANBURY        CLOUDY    64  58  80 SE8       29.89F
GROTON         CLOUDY    59  54  83 S7        29.91F
NEW HAVEN      CLOUDY    63  57  81 SE9       29.90F
CHESTER        CLOUDY    66  57  72 S5G12     29.90F
MERIDEN        CLOUDY    68  56  65 SW6       29.88F
WILLIMANTIC    CLOUDY    68  58  70 SE6       29.90F
OXFORD         CLOUDY    63  55  77 S7        29.91S
$$

MEZ002-015-021-024-NHZ003-005-008-011-012-014-VTZ005-008-272100-
NORTHERN NEW ENGLAND

CITY           SKY/WX    TMP DP  RH WIND       PRES   REMARKS
PORTLAND ME    CLOUDY    52  50  93 E7        29.93S
BANGOR ME      DRIZZLE   63  58  83 S7        29.94R
CONCORD NH     CLOUDY    66  57  72 CALM      29.89F
MANCHESTER NH  CLOUDY    64  54  69 SW5       29.89F
NASHUA NH      CLOUDY    65  57  75 VRB5      29.91F
PORTSMOUTH NH  MOSUNNY   60  53  77 SE7       29.90F
JAFFREY NH     CLOUDY    67  57  70 CALM      29.90F
KEENE NH       CLOUDY    68  57  68 S7        29.88F
BURLINGTON VT  MOSUNNY   78  56  46 S10G20    29.77F
MT. WASHINGTON PTSUNNY   48  45  87 S14         N/A
$$

NYZ052-076-272100-
EASTERN NEW YORK

CITY           SKY/WX    TMP DP  RH WIND       PRES   REMARKS
ALBANY         CLOUDY    72  56  57 S12       29.82F
NEW YORK CITY  CLOUDY    69  57  65 S15       29.87F
$$

ANZALL-272100-
MARINE OBSERVATIONS

STATION/POSITION TIME  TEMP    WIND        PRES    VSBY  WAVE
                       AIR SEA DIR/SP/G                  HT/PER
                 (UTC) (F)     (DEG/KT/KT) (MB)    (MI)  (FT/S)
BOSTON BUOY      1850   50 48   40/  4/  4 1012.7          4/10
BUZZARDS BAY     2000   52     220/  5/  5 1013.7F
NANTUCKET SOUND  1950      47              1013.6R         1/ 5
MASS BAY-STELLWA 1904   48 49   10/  6/  8 1012.7R         3/10
ISLE OF SHOALS   2000   46      60/  4/  4 1013.1F
S OF BLOCK IS    1955      50                N/A           7/10
$$

......................KEY.........................
  SKY/WX - SKY CONDITION/PRESENT WEATHER
  TMP    - TEMPERATURE IN FAHRENHEIT
  DWPT   - DEWPOINT IN FAHRENHEIT
  RH     - RELATIVE HUMIDITY IN PERCENT
  WIND   - DIRECTION AND SPEED IN MPH
  PRES   - MEAN SEA LEVEL PRESSURE IN INCHES OF HG
  WCI    - WIND CHILL INDEX
  VSB    - VISIBILITY IN MILES
  HX     - HEAT INDEX
  TC     - TEMPERATURE IN CELSIUS
  VRB    - VARIABLE WIND DIRECTION
  N/A    - NOT AVAILABLE



USA.gov is the U.S. government's official web portal to all federal, state and local government web resources and services.